sat.trackr.live / text

‹ back to catalog

UNKNOWN

NORAD 81359

UNKNOWN UNKNOWN UNKNOWN

§ Identity

Operator
Country
Launch date
Launch site
Launch vehicle
Mass (kg)
RCS (m²)

External: N2YO · Heavens-Above

§ Orbital elements

Epoch: 2026-05-24T01:39:40.563072Z

Period
104.42 min
Inclination
66.7991°
Eccentricity
0.0117145
Mean motion
13.79096037 rev/d
Perigee alt
881.0 km
Apogee alt
1,053.1 km
Semi-major
7,345.2 km
B*
4.7082e-4
RAAN
23.3677°
Arg perigee
217.9874°
Mean anomaly
141.2895°
Rev number
62,786

§ Raw data

UNKNOWN1 81359U          26144.06921948  .00000433  00000+0  47082-3 0  99952 81359  66.7991  23.3677 0117145 217.9874 141.2895 13.79096037627865

JSON: /api/v1/satellites/81359 · /tle

For live sub-satellite position, see the globe view (requires WebGL).

§ Visibility from observer

Set your observer location to see the next 7 days of passes ≥ 10°. The values pass through the URL so the page stays shareable.

No JS? Fill the form by hand. The geolocation button needs JavaScript.